User: anonymous   Login
Location: Ferchesar
(52.6477°N, 12.4298°E)
Time: 07:33:41
(UTC+01:00)
Language:

Tiros 1 - Orbit

View from above orbital plane
View from above orbital plane
View from above satellite
View from above satellite

Ground track
Ground track

The orbit data is extracted from the following two-line orbital elements,

1 00029U 60002B   21339.92568374  .00000008  00000-0  32136-4 0  9998
2 00029  48.3801 296.6225 0024059   6.3927 353.7287 14.74485975297700
Epoch (UTC): 05 December 2021 22:12:59
Eccentricity: 0.0024059
inclination: 48.3801°
perigee height: 630 km
apogee height: 663 km
right ascension of ascending node: 296.6225°
argument of perigee: 6.3927°
revolutions per day: 14.74485975
mean anomaly at epoch: 353.7287°
orbit number at epoch: 29770

The dashed part of the orbit path shows where the satellite is in the earth's shadow,  

DLR